This is the latest recevied weather packets stored in our database for station/object OH6HPS. If no packets are shown the sender has not sent any weather packets the latest 10 day(s).
| Time | Temp. | Humidity | Pressure | Rain* | Wind** | Luminosity | Snow |
|---|---|---|---|---|---|---|---|
| 1777847791 | 7.22° C | 62% | 1007.3 hPa | 0 mm | - | 0 W/m² | - |
| 1777847191 | 7.78° C | 60% | 1007.3 hPa | 0 mm | - | 0 W/m² | - |
| 1777846593 | 7.78° C | 57% | 1007.4 hPa | 0 mm | - | 0 W/m² | - |
| 1777845993 | 8.33° C | 56% | 1007.5 hPa | 0 mm | - | 0 W/m² | - |
| 1777845391 | 8.33° C | 56% | 1007.7 hPa | 0 mm | - | 0 W/m² | - |
| 1777844790 | 8.33° C | 55% | 1007.6 hPa | 0 mm | - | 0 W/m² | - |
| 1777844188 | 8.89° C | 53% | 1007.6 hPa | 0 mm | - | 0 W/m² | - |
| 1777843590 | 9.44° C | 53% | 1007.7 hPa | 0 mm | - | 0 W/m² | - |
| 1777842989 | 9.44° C | 52% | 1007.7 hPa | 0 mm | - | 0 W/m² | - |
| 1777842389 | 9.44° C | 51% | 1007.6 hPa | 0 mm | - | 0 W/m² | - |
| 1777841788 | 10° C | 52% | 1007.6 hPa | 0 mm | - | 0 W/m² | - |
| 1777841190 | 10° C | 53% | 1007.5 hPa | 0 mm | - | 0 W/m² | - |
| 1777840588 | 10° C | 54% | 1007.4 hPa | 0 mm | - | 0 W/m² | - |
| 1777839989 | 10.56° C | 56% | 1007.3 hPa | 0 mm | - | 0 W/m² | - |
| 1777839388 | 10.56° C | 55% | 1007.4 hPa | 0 mm | - | 0 W/m² | - |
| 1777838787 | 10.56° C | 55% | 1007.4 hPa | 0 mm | - | 0 W/m² | - |
| 1777838188 | 10.56° C | 56% | 1007.4 hPa | 0 mm | - | 0 W/m² | - |
| 1777837587 | 11.11° C | 55% | 1007.5 hPa | 0 mm | - | 0 W/m² | - |
| 1777836985 | 11.67° C | 56% | 1007.5 hPa | 0 mm | - | 0 W/m² | - |
| 1777836387 | 11.67° C | 54% | 1007.4 hPa | 0 mm | - | 0 W/m² | - |
| 1777835786 | 11.67° C | 53% | 1007.6 hPa | 0 mm | - | 0 W/m² | - |
| 1777835186 | 12.22° C | 53% | 1007.4 hPa | 0 mm | - | 0 W/m² | - |
| 1777834586 | 12.22° C | 53% | 1007.4 hPa | 0 mm | - | 0 W/m² | - |
| 1777833986 | 12.22° C | 52% | 1007.4 hPa | 0 mm | - | 0 W/m² | - |
| 1777833386 | 12.78° C | 52% | 1007.4 hPa | 0 mm | - | 0 W/m² | - |
* Rain latest hour (hover to see other rain measurements)
** Current wind speed in m/s (hover to see current wind gust speed)